Location: Newark
(49.1939°N, 0.8136°E)
Time: 03:17:23
(UTC+00:00)

Envisat - Pass Details

Date: 26 November 2019
Orbit: 764 x 766 km, 98.1° (Epoch: 07 December)

Event Time Altitude Azimuth Distance (km) Brightness Sun altitude
Rises 19:38:01 0° 226° (SW) 3,224 6.7 -34.2°
Reaches altitude 10° 19:42:48 10° 267° (W) 2,306 6.2 -35.0°
Maximum altitude 19:43:37 10° 276° (W) 2,283 6.2 -35.1°
Drops below altitude 10° 19:44:25 10° 286° (WNW) 2,308 6.2 -35.2°
Sets 19:49:15 0° 327° (NNW) 3,243 6.8 -36.0°
